TimeCST,TemperatureF,Dew PointF,Humidity,Sea Level PressureIn,VisibilityMPH,Wind Direction,Wind SpeedMPH,Gust SpeedMPH,PrecipitationIn,Events,Conditions,WindDirDegrees,DateUTC
12:13 AM,-20.2,-29.2,63,30.31,10.0,WNW,10.4,19.6,N/A,,Clear,300,2014-01-06 06:13:00
12:33 AM,-20.2,-29.2,63,30.30,5.0,WNW,12.7,20.7,N/A,,Haze,300,2014-01-06 06:33:00
12:52 AM,-20.2,-29.2,63,30.29,10.0,WNW,12.7,21.9,N/A,,Scattered Clouds,300,2014-01-06 06:52:00
1:13 AM,-20.2,-29.2,63,30.29,10.0,NW,12.7,19.6,N/A,,Clear,310,2014-01-06 07:13:00
1:33 AM,-20.2,-29.2,63,30.30,10.0,WNW,13.8,19.6,N/A,,Clear,300,2014-01-06 07:33:00
1:52 AM,-20.2,-29.2,63,30.30,10.0,NW,11.5,18.4,N/A,,Clear,310,2014-01-06 07:52:00
2:13 AM,-22.0,-29.2,69,30.30,10.0,NW,16.1,21.9,N/A,,Clear,310,2014-01-06 08:13:00
2:33 AM,-22.0,-29.2,69,30.31,10.0,WNW,11.5,18.4,N/A,,Clear,300,2014-01-06 08:33:00
2:52 AM,-22.0,-29.2,69,30.30,5.0,WNW,10.4,-,N/A,,Haze,300,2014-01-06 08:52:00
3:13 AM,-22.0,-29.2,69,30.30,10.0,NW,12.7,18.4,N/A,,Scattered Clouds,310,2014-01-06 09:13:00
3:32 AM,-22.0,-29.2,69,30.30,10.0,WNW,13.8,18.4,N/A,,Clear,300,2014-01-06 09:32:00
3:53 AM,-22.0,-29.2,69,30.30,10.0,WNW,13.8,19.6,N/A,,Clear,300,2014-01-06 09:53:00
4:12 AM,-20.2,-29.2,63,30.29,7.0,WNW,13.8,20.7,N/A,,Clear,300,2014-01-06 10:12:00
4:32 AM,-20.2,-29.2,63,30.29,10.0,WNW,12.7,19.6,N/A,,Clear,300,2014-01-06 10:32:00
4:53 AM,-20.2,-29.2,63,30.29,10.0,WNW,13.8,-,N/A,,Clear,300,2014-01-06 10:53:00
5:12 AM,-20.2,-29.2,63,30.29,10.0,WNW,10.4,17.3,N/A,,Clear,300,2014-01-06 11:12:00
5:32 AM,-20.2,-29.2,63,30.29,10.0,WNW,9.2,18.4,N/A,,Clear,300,2014-01-06 11:32:00
5:53 AM,-20.2,-29.2,63,30.29,10.0,WNW,11.5,-,N/A,,Scattered Clouds,300,2014-01-06 11:53:00
6:13 AM,-20.2,-29.2,63,30.28,10.0,WNW,12.7,19.6,N/A,,Scattered Clouds,290,2014-01-06 12:13:00
6:32 AM,-20.2,-29.2,63,30.28,10.0,WNW,10.4,-,N/A,,Clear,300,2014-01-06 12:32:00
6:53 AM,-20.2,-27.4,69,30.28,7.0,WNW,12.7,16.1,N/A,,Scattered Clouds,290,2014-01-06 12:53:00
7:13 AM,-20.2,-27.4,69,30.28,7.0,WNW,11.5,20.7,N/A,,Scattered Clouds,290,2014-01-06 13:13:00
7:32 AM,-20.2,-27.4,69,30.28,10.0,WNW,13.8,20.7,N/A,,Scattered Clouds,290,2014-01-06 13:32:00
7:53 AM,-20.2,-27.4,69,30.28,10.0,WNW,12.7,18.4,N/A,,Clear,290,2014-01-06 13:53:00
8:12 AM,-20.2,-27.4,69,30.28,7.0,WNW,13.8,20.7,N/A,,Mostly Cloudy,290,2014-01-06 14:12:00
8:33 AM,-20.2,-27.4,69,30.28,7.0,WNW,13.8,20.7,N/A,,Scattered Clouds,290,2014-01-06 14:33:00
8:53 AM,-20.2,-29.2,63,30.28,7.0,WNW,16.1,21.9,N/A,,Clear,290,2014-01-06 14:53:00
9:12 AM,-20.2,-27.4,69,30.28,10.0,WNW,13.8,19.6,N/A,,Clear,300,2014-01-06 15:12:00
9:33 AM,-20.2,-27.4,69,30.29,10.0,WNW,16.1,20.7,N/A,,Clear,290,2014-01-06 15:33:00
9:53 AM,-20.2,-27.4,69,30.28,10.0,WNW,13.8,20.7,N/A,,Clear,290,2014-01-06 15:53:00
10:12 AM,-18.4,-27.4,63,30.28,10.0,WNW,11.5,18.4,N/A,,Scattered Clouds,290,2014-01-06 16:12:00
10:33 AM,-18.4,-27.4,63,30.28,10.0,WNW,16.1,23.0,N/A,,Clear,300,2014-01-06 16:33:00
10:53 AM,-18.4,-27.4,63,30.27,10.0,WNW,17.3,20.7,N/A,,Clear,290,2014-01-06 16:53:00
11:12 AM,-16.6,-25.6,64,30.27,10.0,WNW,16.1,21.9,N/A,,Clear,290,2014-01-06 17:12:00
11:33 AM,-16.6,-25.6,64,30.26,10.0,WNW,17.3,25.3,N/A,,Clear,290,2014-01-06 17:33:00
11:53 AM,-16.6,-25.6,64,30.25,10.0,WNW,16.1,20.7,N/A,,Clear,290,2014-01-06 17:53:00
12:12 PM,-16.6,-25.6,64,30.24,10.0,West,16.1,20.7,N/A,,Clear,280,2014-01-06 18:12:00
12:33 PM,-16.6,-23.8,70,30.23,10.0,West,17.3,23.0,N/A,,Clear,280,2014-01-06 18:33:00
12:52 PM,-16.6,-23.8,70,30.22,10.0,West,13.8,21.9,N/A,,Scattered Clouds,280,2014-01-06 18:52:00
1:13 PM,-14.8,-23.8,64,30.22,10.0,West,15.0,20.7,N/A,,Overcast,280,2014-01-06 19:13:00
1:32 PM,-14.8,-23.8,64,30.22,10.0,West,13.8,23.0,N/A,,Overcast,280,2014-01-06 19:32:00
1:53 PM,-14.8,-22.0,70,30.22,10.0,West,12.7,18.4,N/A,,Scattered Clouds,270,2014-01-06 19:53:00
2:13 PM,-14.8,-23.8,64,30.22,10.0,WNW,16.1,20.7,N/A,,Mostly Cloudy,290,2014-01-06 20:13:00
2:33 PM,-14.8,-23.8,64,30.22,10.0,West,16.1,21.9,N/A,,Scattered Clouds,280,2014-01-06 20:33:00
2:52 PM,-14.8,-23.8,64,30.21,10.0,West,15.0,20.7,N/A,,Clear,280,2014-01-06 20:52:00
3:13 PM,-14.8,-23.8,64,30.22,10.0,WNW,12.7,18.4,N/A,,Clear,290,2014-01-06 21:13:00
3:33 PM,-14.8,-23.8,64,30.22,10.0,West,13.8,21.9,N/A,,Clear,280,2014-01-06 21:33:00
3:52 PM,-14.8,-23.8,64,30.22,10.0,West,15.0,20.7,N/A,,Clear,280,2014-01-06 21:52:00
4:13 PM,-14.8,-23.8,64,30.21,10.0,West,12.7,19.6,N/A,,Clear,280,2014-01-06 22:13:00
4:33 PM,-14.8,-23.8,64,30.21,10.0,West,17.3,23.0,N/A,,Clear,280,2014-01-06 22:33:00
4:52 PM,-14.8,-23.8,64,30.21,10.0,WNW,12.7,18.4,N/A,,Clear,290,2014-01-06 22:52:00
5:13 PM,-14.8,-23.8,64,30.21,10.0,WNW,11.5,18.4,N/A,,Clear,290,2014-01-06 23:13:00
5:33 PM,-14.8,-22.0,70,30.21,10.0,WNW,11.5,-,N/A,,Clear,290,2014-01-06 23:33:00
5:52 PM,-14.8,-22.0,70,30.21,10.0,WNW,8.1,-,N/A,,Clear,290,2014-01-06 23:52:00
6:13 PM,-14.8,-20.2,77,30.21,10.0,WNW,9.2,-,N/A,,Scattered Clouds,290,2014-01-07 00:13:00
6:33 PM,-14.8,-20.2,77,30.21,10.0,West,6.9,-,N/A,,Clear,280,2014-01-07 00:33:00
6:52 PM,-14.8,-20.2,77,30.20,10.0,WNW,9.2,-,N/A,,Scattered Clouds,290,2014-01-07 00:52:00
7:13 PM,-14.8,-20.2,77,30.20,10.0,West,10.4,-,N/A,,Clear,280,2014-01-07 01:13:00
7:33 PM,-14.8,-20.2,77,30.19,10.0,West,9.2,-,N/A,,Clear,280,2014-01-07 01:33:00
7:52 PM,-14.8,-20.2,77,30.19,10.0,West,6.9,-,N/A,,Clear,280,2014-01-07 01:52:00
8:12 PM,-14.8,-20.2,77,30.19,10.0,West,6.9,-,N/A,,Clear,280,2014-01-07 02:12:00
8:33 PM,-14.8,-20.2,77,30.19,10.0,West,6.9,-,N/A,,Clear,270,2014-01-07 02:33:00
8:52 PM,-14.8,-20.2,77,30.18,10.0,West,6.9,-,N/A,,Clear,270,2014-01-07 02:52:00
9:13 PM,-14.8,-20.2,77,30.17,10.0,West,8.1,-,N/A,,Clear,270,2014-01-07 03:13:00
9:32 PM,-14.8,-18.4,84,30.16,10.0,West,6.9,-,N/A,,Clear,270,2014-01-07 03:32:00
9:53 PM,-14.8,-18.4,84,30.16,10.0,West,6.9,-,N/A,,Clear,270,2014-01-07 03:53:00
10:13 PM,-13.0,-18.4,77,30.16,10.0,West,9.2,-,N/A,,Clear,270,2014-01-07 04:13:00
10:32 PM,-13.0,-18.4,77,30.15,10.0,West,10.4,-,N/A,,Clear,270,2014-01-07 04:32:00
10:53 PM,-11.2,-18.4,70,30.14,10.0,West,9.2,16.1,N/A,,Clear,270,2014-01-07 04:53:00
11:13 PM,-11.2,-18.4,70,30.14,10.0,West,8.1,-,N/A,,Clear,270,2014-01-07 05:13:00
11:32 PM,-11.2,-18.4,70,30.14,10.0,West,8.1,-,N/A,,Clear,280,2014-01-07 05:32:00
11:53 PM,-11.2,-16.6,77,30.12,10.0,West,8.1,-,N/A,,Clear,280,2014-01-07 05:53:00